Location: Buchdorf
(48.7842°N, 10.8275°E)
Time: 16:18:05
(UTC+00:00)

SL-16 R/B - Pass Details

Date: 09 April 2020
Orbit: 842 x 846 km, 71.0° (Epoch: 02 June)

Event Time Altitude Azimuth Distance (km) Brightness Sun altitude
Rises 19:44:41 0° 334° (NNW) 3,414 6.4 -16.6°
Reaches altitude 10° 19:48:56 10° 4° (N) 2,477 5.0 -17.1°
Maximum altitude 19:51:09 12° 28° (NNE) 2,319 4.6 -17.4°
Drops below altitude 10° 19:53:23 10° 51° (NE) 2,475 4.5 -17.7°
Enters shadow 19:55:08 - 66° (ENE) 2,787 4.6 -18.0°
